Wind_Speed
22 22 23 23 23 21 20 20 20 19 20 19 19 21 22 22 23 25 25 25 23 22 24 22 18 17 17 18 18 16 14 15 17 20 23 23 25 27 27 26 26 25 24 23 22 21 21 21 19 18 18 20 20 20 21 22 22 22 23 23 23 23
22 22 22 22 21 20 19 20 19 19 19 18 19 21 22 23 25 26 26 26 24 22 24 23 20 19 19 19 20 18 16 15 17 20 24 24 25 28 28 28 27 27 26 24 23 22 21 21 20 19 18 19 20 20 20 21 22 22 23 23 23 22
23 23 22 21 20 19 18 19 19 19 18 18 19 19 21 24 27 28 27 27 26 24 23 23 22 22 21 21 20 20 17 15 17 19 24 25 26 28 29 29 28 28 27 26 25 23 22 22 21 20 19 19 20 20 20 21 22 23 23 23 22 22
23 23 22 21 21 19 19 20 20 19 19 18 18 18 20 24 28 30 28 28 27 25 25 24 23 23 23 22 21 21 19 17 16 18 22 25 26 28 30 29 29 28 28 27 26 25 24 23 22 21 20 20 20 20 21 21 22 23 23 23 22 22
23 23 22 22 21 21 21 21 21 20 19 18 17 18 18 20 27 30 28 29 28 27 26 25 24 24 24 23 23 22 20 18 17 17 20 25 26 28 30 30 29 29 29 28 27 26 25 24 23 22 21 21 20 21 21 22 22 22 22 23 22 22
23 22 22 22 22 22 23 23 22 21 20 19 18 17 17 16 23 29 28 29 29 28 27 26 25 25 24 24 24 23 21 20 19 18 19 23 27 27 29 31 30 30 30 29 29 28 27 26 25 24 23 22 21 21 22 22 22 23 22 22 22 22
24 23 23 23 23 23 24 24 23 23 22 20 19 17 16 14 19 25 27 28 29 30 29 28 27 27 26 25 25 25 23 22 20 19 19 21 26 28 29 30 31 31 30 30 30 29 29 28 27 25 24 23 23 22 22 22 22 23 23 22 22 21
25 25 25 24 24 24 24 24 24 24 23 22 21 18 16 15 17 21 25 27 29 30 30 31 30 30 29 27 26 26 25 24 22 21 20 20 23 28 29 30 32 32 32 31 31 31 30 29 28 27 26 25 24 24 23 23 22 22 22 23 22 22
27 27 27 26 25 25 25 25 25 25 24 24 23 19 18 18 17 19 22 25 28 30 31 33 33 33 32 30 28 28 27 26 25 23 22 21 21 25 29 30 32 33 33 32 32 32 32 31 30 29 28 27 26 26 25 24 23 23 23 23 23 22
29 29 29 28 27 26 26 26 25 25 25 24 23 22 21 20 19 20 21 23 28 31 32 33 33 35 35 33 31 30 29 29 28 26 24 23 21 22 26 30 32 33 33 34 33 32 33 33 32 31 30 29 28 27 26 26 25 24 24 24 24 23
30 30 30 30 29 28 27 27 26 26 26 25 24 23 23 22 21 21 22 23 26 30 33 33 32 34 36 34 33 32 31 31 31 29 27 26 24 22 23 27 30 32 33 34 34 34 34 34 33 33 32 31 30 29 28 27 27 26 25 25 25 24
32 32 31 31 31 29 29 29 28 28 27 26 25 25 24 24 24 23 23 23 24 27 31 33 31 32 36 37 36 36 34 33 32 32 31 29 27 25 23 24 27 30 32 33 34 35 35 35 35 35 34 33 32 30 29 29 29 28 27 26 25 25
34 34 33 33 32 31 30 30 30 30 29 28 27 26 26 27 26 26 26 26 25 25 27 30 30 31 35 38 39 39 38 36 34 34 33 32 30 28 26 25 25 27 30 33 34 35 36 37 37 36 36 35 33 33 31 31 30 30 29 28 27 27
35 35 34 34 34 33 32 31 31 32 31 30 29 28 28 28 28 28 28 28 26 26 26 28 30 32 35 38 41 42 41 39 38 36 35 35 33 31 29 27 26 26 28 31 34 35 36 37 38 38 37 36 35 34 33 32 32 32 31 30 30 29
36 35 35 34 34 34 34 33 32 32 33 32 31 31 30 30 31 30 30 30 28 28 28 29 30 32 33 34 38 42 43 42 42 40 38 38 36 34 32 31 30 28 27 29 32 35 36 37 38 38 38 38 37 36 35 35 34 33 33 32 32 31
35 35 34 34 34 34 34 34 33 33 33 34 34 33 32 32 32 33 32 32 32 32 31 31 31 32 32 31 33 37 42 43 44 44 42 40 39 38 36 34 33 31 30 29 30 34 36 37 38 38 39 39 39 38 38 37 36 35 35 34 33 33
32 32 32 32 32 33 33 33 33 33 33 34 35 35 34 34 33 34 34 34 35 35 35 34 34 34 33 33 32 32 37 43 46 47 46 44 42 41 39 37 35 34 33 32 31 32 35 37 38 38 39 40 40 40 40 38 38 37 36 35 35 34
29 30 30 30 30 31 31 31 31 31 32 33 34 35 35 35 34 35 36 36 37 37 37 36 36 36 35 34 34 32 33 39 46 48 48 47 45 44 42 40 38 38 37 36 35 34 34 36 39 39 39 40 41 41 41 40 39 39 38 37 36 35
28 29 29 30 30 30 30 31 31 30 31 31 32 34 35 36 36 35 36 37 37 38 38 38 37 37 36 35 34 34 33 35 41 46 49 49 48 46 45 43 42 41 40 40 39 37 35 35 38 40 40 41 41 41 41 41 41 40 40 39 38 36
27 27 28 29 29 29 30 30 31 31 31 31 32 33 34 36 36 36 36 37 38 39 39 39 38 37 37 36 35 35 35 35 36 40 46 50 50 49 47 46 45 45 44 43 42 40 39 37 38 39 41 41 41 41 41 41 41 41 41 40 39 38
27 27 27 27 28 29 29 29 30 31 31 31 32 33 34 35 36 36 37 37 38 39 40 40 40 39 39 38 38 38 37 37 38 38 40 43 48 52 51 50 49 48 47 45 44 44 43 41 40 39 40 42 43 43 42 42 41 41 41 41 40 40
27 28 27 27 27 28 29 29 30 31 31 31 32 33 33 34 35 36 37 38 38 39 41 41 41 41 41 41 41 41 40 40 41 41 39 39 42 46 49 51 53 51 50 48 46 46 46 45 43 41 41 42 43 44 44 43 42 42 41 41 41 41
28 29 29 28 27 27 28 29 30 31 31 32 32 32 33 34 35 36 36 37 38 39 40 42 42 42 43 43 43 42 42 42 42 42 41 40 40 41 42 46 54 56 54 51 49 49 48 46 46 45 43 42 42 43 44 44 43 42 42 41 41 42
30 30 30 30 30 30 30 30 30 31 31 32 32 32 33 34 35 36 36 37 37 38 40 41 43 43 44 45 45 45 44 44 44 44 42 41 42 42 41 42 49 57 57 53 52 52 49 48 49 49 46 43 43 43 43 43 44 44 44 44 43 42
31 31 31 31 31 32 32 31 31 31 32 32 33 33 33 34 35 36 37 37 38 38 39 40 42 44 45 46 47 47 47 46 46 46 45 44 43 44 45 42 44 51 56 55 53 54 52 51 51 51 49 48 46 44 42 43 44 45 46 46 45 44
31 31 31 31 31 32 33 33 33 33 33 34 34 34 34 34 35 36 37 38 39 39 39 40 41 43 44 46 47 48 49 49 49 48 48 47 47 46 46 46 44 47 53 55 53 54 55 54 54 53 52 51 49 45 44 45 45 45 47 47 46 46
32 31 31 31 31 32 33 34 35 35 35 35 36 35 35 35 35 36 37 39 40 41 41 41 41 42 44 45 46 48 50 51 51 51 50 49 49 49 48 48 47 46 51 55 52 53 55 55 56 56 53 52 52 49 47 47 46 45 46 46 47 48
32 32 32 32 32 32 33 35 35 35 35 36 36 37 37 37 37 36 37 38 40 41 42 43 42 42 43 45 46 47 49 51 52 52 52 52 51 51 50 50 50 49 51 55 55 53 53 55 57 57 56 54 53 53 52 51 48 47 47 45 46 48
34 34 33 33 33 34 34 35 36 36 36 36 37 37 37 38 38 38 38 38 39 41 42 44 44 44 44 45 46 47 48 50 52 53 54 54 54 53 53 53 53 52 52 54 57 54 52 56 59 58 60 59 56 55 55 54 51 49 47 46 46 46
35 35 35 35 35 35 35 36 37 37 38 38 38 38 38 38 39 40 40 40 40 41 42 43 45 46 46 46 47 47 48 49 51 53 54 55 56 56 55 55 54 55 55 55 56 54 50 53 59 60 61 61 59 57 57 56 54 51 48 47 47 46
37 37 37 37 37 37 37 38 38 39 39 39 40 40 40 40 40 40 41 42 42 42 43 43 44 46 47 47 48 48 49 49 50 52 54 55 57 57 57 58 57 57 57 56 55 54 50 49 54 59 60 60 60 59 58 58 56 54 53 51 50 48
38 38 38 38 39 39 39 40 40 41 41 41 41 42 42 43 42 42 42 43 44 44 44 44 45 46 47 48 48 49 50 50 50 51 53 55 56 58 58 59 60 60 59 58 56 55 53 49 51 55 56 57 61 62 62 61 59 57 57 55 53 52
40 40 40 40 41 41 41 41 42 42 43 43 43 43 43 44 44 44 44 44 45 45 46 46 46 46 47 48 48 49 49 51 51 51 52 54 55 57 58 60 62 62 61 60 59 57 55 52 52 52 51 54 60 62 61 62 62 61 59 58 57 56
42 42 42 42 42 42 42 43 43 43 43 43 44 44 44 45 45 45 45 46 46 46 47 47 47 47 47 48 48 49 49 50 51 51 52 53 54 55 57 59 61 63 63 62 61 59 57 55 52 50 48 50 56 59 59 58 59 61 62 62 60 58
43 43 43 44 44 44 44 44 44 43 43 43 44 44 44 44 45 46 46 46 47 47 48 48 48 48 48 48 49 49 49 49 50 51 51 52 53 54 55 57 59 62 64 64 64 61 59 58 55 51 48 48 51 54 56 57 57 58 60 62 63 61
44 44 44 44 44 44 45 45 44 44 43 43 43 44 44 44 44 45 46 46 47 48 48 48 48 49 49 49 49 49 50 50 50 50 51 52 53 54 54 55 57 59 62 65 66 64 63 61 58 56 54 53 53 52 53 56 57 58 57 57 61 64
45 44 45 45 45 45 45 45 45 44 43 43 43 44 44 44 44 44 44 45 46 47 48 49 49 49 49 49 49 50 50 50 51 51 51 51 52 53 54 55 55 56 59 63 65 66 66 64 61 60 59 58 58 56 54 53 53 56 56 53 54 60
Wind_Direction
256 255 256 259 262 263 262 258 255 255 255 257 256 254 250 241 233 230 228 226 223 219 214 211 210 208 210 215 217 215 214 215 209 195 189 189 186 182 185 188 185 185 187 186 187 188 184 180 181 183 182 181 180 179 178 178 178 180 179 179 177 177
254 252 253 257 260 262 262 261 259 259 260 261 260 258 256 246 235 229 226 223 220 216 214 214 215 216 215 216 216 215 215 217 215 201 191 190 189 186 186 189 186 186 188 189 190 192 191 187 186 187 188 187 184 182 182 180 178 179 180 181 181 180
255 254 254 255 257 258 258 260 260 261 263 261 261 262 261 250 235 227 223 220 218 214 213 212 214 218 217 215 215 214 214 218 221 209 196 192 192 189 189 191 189 187 188 191 192 194 195 193 193 191 193 193 189 186 185 184 183 182 183 184 185 184
258 257 256 256 256 256 255 257 258 260 260 260 261 261 265 254 231 222 221 219 217 214 213 212 212 216 218 215 213 213 213 215 220 216 204 198 194 192 191 192 193 191 189 191 193 195 197 197 198 196 196 198 195 192 189 190 190 189 188 188 189 189
259 258 257 256 255 254 253 254 255 257 258 259 262 261 269 258 226 216 218 218 218 215 214 213 211 213 218 218 212 211 213 214 216 218 212 204 199 196 193 193 194 195 192 191 193 197 199 200 202 200 199 201 201 199 196 194 195 196 195 195 194 194
257 257 256 255 254 252 251 252 252 254 256 257 260 260 269 259 221 213 217 218 218 217 216 215 212 212 218 221 215 210 212 214 214 216 215 210 205 201 197 194 195 197 196 193 194 197 200 202 204 204 202 203 205 206 204 201 199 200 201 201 201 200
258 257 256 255 253 252 251 251 250 251 253 252 254 255 259 251 221 215 218 218 218 217 217 215 213 213 216 221 220 213 211 213 215 216 216 214 210 207 202 197 196 198 200 197 195 197 201 203 205 206 205 205 206 208 209 208 205 205 205 206 207 207
259 258 257 255 254 253 251 251 251 249 250 249 248 245 243 241 229 223 222 221 219 216 217 216 215 215 216 220 222 218 214 213 214 217 219 217 214 212 208 202 198 199 202 201 198 198 201 203 206 207 208 208 208 209 211 212 211 210 210 210 210 211
259 259 258 256 254 253 252 252 252 250 249 248 247 242 237 236 234 231 228 226 222 217 216 216 215 216 217 219 222 222 217 214 214 216 220 219 217 216 214 209 203 200 202 204 202 201 202 204 206 208 208 210 211 211 211 212 213 213 212 212 212 212
260 260 260 258 255 254 254 253 253 252 251 249 248 244 239 236 233 231 230 228 224 219 218 218 216 216 219 219 220 223 220 215 214 215 219 220 218 217 218 217 211 205 203 205 205 204 205 206 206 208 209 210 212 213 212 211 213 214 213 213 212 212
260 259 259 259 256 255 254 255 254 253 253 252 249 246 243 239 235 232 231 231 227 223 221 222 220 216 219 221 220 223 223 219 215 214 217 220 219 218 219 221 219 214 208 207 208 207 208 208 208 209 210 211 212 214 214 212 213 214 214 214 213 213
260 259 259 258 257 254 253 254 254 253 252 252 250 247 245 242 239 236 236 235 232 228 224 225 226 220 219 222 222 223 224 221 218 216 217 219 220 220 219 221 224 223 218 212 210 209 209 210 210 210 211 212 213 214 215 214 215 215 214 215 215 214
258 258 258 257 256 255 252 252 252 253 251 250 248 245 243 242 240 238 237 235 230 229 227 225 227 224 221 222 223 224 225 223 221 218 218 219 221 223 223 223 224 227 227 222 217 213 211 211 212 212 213 213 214 215 216 216 217 217 215 215 216 216
258 257 256 255 255 254 252 251 251 252 252 250 248 245 241 240 239 237 237 237 230 226 227 226 226 225 224 224 224 225 226 225 223 221 219 219 221 224 226 227 226 227 230 230 226 221 216 214 214 214 215 215 216 217 217 217 218 219 218 217 217 218
258 256 255 254 253 253 252 251 251 251 252 251 250 247 243 240 238 236 235 236 234 229 228 228 228 227 226 226 226 227 227 226 223 222 221 220 221 224 226 229 229 228 229 231 231 228 224 220 217 216 216 217 218 219 219 219 219 221 220 219 219 219
256 256 256 254 253 253 252 251 251 251 252 252 251 249 247 243 240 238 236 234 234 233 232 232 232 232 230 230 231 231 228 226 224 223 222 221 221 223 225 229 231 231 230 230 231 231 229 226 222 219 218 219 220 221 222 221 220 222 223 222 221 222
255 255 255 255 254 254 253 252 251 251 252 253 252 251 249 246 242 240 238 236 235 235 234 234 234 235 235 234 235 234 229 225 224 224 223 222 221 222 224 227 231 233 233 232 231 231 231 230 228 225 222 221 222 222 224 223 222 223 225 225 225 225
253 254 254 254 254 254 255 254 253 252 251 251 252 252 250 248 245 242 240 239 239 238 236 235 235 236 238 238 236 235 232 226 224 224 225 224 223 222 223 226 229 232 233 234 232 230 231 231 230 229 226 225 224 225 225 225 225 225 225 227 228 228
251 252 253 254 254 254 255 256 255 254 252 251 251 251 251 249 246 244 242 241 241 241 240 239 237 236 238 240 237 234 234 230 225 224 225 226 227 226 225 226 229 231 233 234 234 232 231 231 231 231 230 229 228 227 228 228 228 228 227 227 229 230
248 248 249 252 254 255 255 256 256 256 255 253 252 251 251 250 248 245 243 241 241 243 243 242 241 239 237 237 236 235 235 233 230 227 225 226 228 230 229 228 230 232 232 233 234 234 232 231 232 232 231 231 231 231 231 230 231 231 230 230 230 231
252 250 248 248 250 252 254 254 255 255 255 254 253 253 252 251 250 248 245 243 242 242 243 243 243 242 240 237 235 235 237 236 234 231 228 227 228 230 231 231 232 233 233 232 233 234 234 233 232 233 233 232 232 232 233 233 233 233 233 232 232 232
258 256 255 253 251 251 252 253 254 255 255 254 254 253 253 252 251 250 247 245 243 242 242 243 243 243 242 240 237 235 235 237 237 236 232 229 229 231 232 231 232 234 234 233 234 234 234 234 234 234 234 233 232 233 234 234 234 234 234 234 234 234
262 262 262 261 259 256 255 255 255 256 256 255 255 254 253 253 253 252 249 247 245 244 243 243 242 242 243 242 240 237 235 235 238 239 236 233 233 234 235 233 232 233 233 233 234 235 235 235 235 234 234 234 233 233 233 234 235 235 235 235 234 234
266 266 266 266 265 263 261 260 259 258 258 258 257 256 255 255 255 255 253 250 247 245 245 244 243 242 242 242 242 241 238 236 236 239 238 237 237 237 238 237 234 231 231 231 233 235 235 235 235 236 235 235 234 233 233 234 235 236 236 235 235 235
267 267 267 268 268 268 267 266 265 264 263 262 260 259 258 257 257 257 256 254 251 247 245 245 245 243 242 242 242 242 241 239 236 236 237 237 239 239 240 240 238 233 230 230 232 233 235 235 235 235 235 236 235 234 234 233 233 235 236 236 236 236
267 267 268 268 269 270 271 271 270 270 269 268 266 264 262 260 259 258 258 257 255 252 248 246 245 245 244 242 242 241 241 240 239 237 236 236 237 239 240 240 240 236 229 228 231 232 233 235 236 235 234 235 236 235 234 234 233 234 235 236 237 237
267 267 267 267 267 268 268 269 270 270 271 271 270 269 266 264 261 259 258 258 257 256 254 250 246 245 245 244 243 242 241 240 240 239 237 236 236 237 239 240 240 238 232 228 230 232 233 233 235 235 234 234 236 236 235 235 234 234 235 235 237 238
267 267 266 266 266 266 266 267 268 268 269 270 270 271 271 269 266 263 260 258 257 257 256 254 251 247 246 246 245 244 243 241 240 240 239 238 237 236 237 238 239 239 235 231 231 233 234 233 233 235 235 234 235 236 237 236 235 234 235 235 236 238
268 268 267 266 266 266 267 268 269 269 269 269 269 270 270 271 270 268 264 261 258 256 256 255 254 252 248 247 246 245 245 244 241 240 240 239 238 237 237 237 238 239 238 236 235 237 237 234 232 233 234 234 234 235 237 238 237 236 236 236 237 238
272 271 271 270 270 270 271 271 272 272 272 272 271 270 269 269 269 269 268 265 262 258 256 255 255 254 252 249 247 246 245 245 244 242 240 239 239 238 238 238 238 238 239 240 240 241 240 235 233 233 232 233 234 235 236 238 239 239 238 238 238 238
275 276 276 276 276 276 276 276 276 275 275 274 273 272 271 269 267 267 267 266 264 261 258 256 254 254 253 251 249 247 246 245 245 244 242 240 239 238 238 239 239 239 239 240 241 242 241 239 237 234 231 232 234 236 237 237 238 239 239 239 238 238
277 278 279 279 280 280 279 278 278 277 276 275 275 274 273 271 269 267 265 264 264 263 260 258 255 254 253 252 250 249 248 246 245 244 243 242 241 239 238 238 239 239 240 241 241 240 240 242 241 234 228 230 232 234 236 236 236 237 238 239 239 239
278 279 279 280 279 279 278 277 277 276 276 275 274 273 273 272 271 269 266 265 263 262 261 259 257 255 253 252 251 250 248 247 246 245 244 243 242 241 239 238 238 239 240 241 241 240 240 242 241 234 230 231 230 231 233 234 236 237 238 239 240 240
279 280 280 280 279 278 277 276 275 274 274 273 272 272 271 271 270 269 267 266 264 263 262 261 259 257 254 252 251 250 249 248 247 246 245 244 243 242 240 238 238 238 239 241 242 241 240 241 240 236 235 232 228 228 232 234 235 237 238 238 238 240
280 280 280 280 279 278 277 275 274 272 271 271 270 270 270 269 269 268 267 266 265 264 262 261 260 259 257 255 252 251 250 249 248 247 246 245 244 243 243 240 238 237 238 240 241 241 240 239 238 237 237 235 230 230 233 235 237 237 237 239 238 238
280 281 281 280 279 278 277 275 274 272 270 268 268 268 268 268 267 267 266 266 265 264 263 262 261 260 259 257 255 253 251 249 248 248 247 247 246 244 244 243 240 238 237 239 240 241 240 239 237 236 237 236 234 233 233 235 238 239 238 238 239 238
281 281 281 280 279 278 277 275 274 272 270 268 266 266 266 266 266 266 265 265 264 263 263 262 261 260 259 258 257 255 254 252 250 249 248 248 247 246 245 245 244 240 238 237 239 240 240 240 238 236 236 235 235 235 235 234 235 238 238 235 236 237
Height
5834 5834 5834 5834 5834 5835 5836 5836 5837 5837 5837 5838 5839 5839 5840 5842 5843 5844 5845 5847 5850 5852 5854 5855 5856 5858 5859 5860 5861 5861 5861 5862 5863 5863 5864 5864 5865 5865 5867 5868 5870 5872 5873 5874 5875 5876 5876 5877 5878 5879 5880 5880 5881 5882 5882 5883 5884 5886 5887 5888 5889 5890
5832 5832 5833 5833 5833 5833 5833 5833 5833 5834 5834 5835 5835 5836 5838 5839 5841 5842 5843 5845 5848 5850 5852 5853 5855 5856 5858 5859 5859 5860 5860 5861 5862 5862 5862 5863 5864 5865 5866 5867 5869 5870 5872 5873 5874 5875 5876 5877 5877 5878 5879 5880 5880 5881 5882 5883 5884 5885 5886 5888 5889 5890
5830 5830 5831 5831 5831 5832 5832 5831 5831 5831 5832 5832 5833 5834 5835 5836 5838 5839 5841 5843 5845 5848 5849 5851 5853 5854 5856 5857 5858 5858 5859 5860 5861 5861 5862 5862 5863 5864 5865 5866 5868 5869 5870 5872 5873 5874 5875 5876 5876 5877 5878 5879 5880 5881 5882 5883 5884 5884 5885 5887 5888 5889
5828 5828 5829 5829 5830 5830 5830 5830 5830 5830 5830 5831 5831 5832 5832 5832 5833 5836 5838 5840 5842 5845 5847 5849 5850 5852 5854 5856 5857 5857 5857 5858 5859 5860 5861 5861 5862 5863 5864 5865 5867 5868 5869 5870 5872 5873 5874 5875 5875 5876 5877 5878 5879 5880 5881 5882 5883 5884 5885 5886 5887 5888
5826 5826 5826 5827 5828 5828 5828 5828 5828 5829 5829 5829 5829 5830 5829 5828 5829 5832 5835 5838 5840 5842 5844 5846 5848 5850 5852 5853 5855 5856 5856 5857 5857 5859 5860 5861 5862 5862 5863 5864 5866 5867 5868 5869 5871 5872 5873 5874 5874 5875 5876 5877 5878 5879 5880 5881 5883 5884 5885 5885 5886 5887
5824 5824 5824 5825 5825 5826 5826 5826 5827 5827 5827 5827 5828 5828 5827 5826 5827 5830 5832 5835 5838 5840 5842 5844 5846 5848 5849 5851 5853 5854 5854 5855 5856 5857 5859 5860 5861 5862 5862 5863 5864 5866 5867 5868 5869 5871 5872 5873 5874 5874 5875 5876 5877 5878 5879 5880 5882 5883 5884 5885 5885 5886
5821 5821 5822 5823 5823 5823 5824 5824 5825 5825 5826 5826 5826 5826 5827 5826 5827 5828 5830 5832 5835 5837 5839 5841 5844 5845 5847 5849 5850 5852 5853 5854 5854 5855 5857 5858 5860 5861 5861 5862 5863 5865 5866 5867 5868 5869 5870 5871 5872 5873 5874 5875 5876 5877 5878 5879 5881 5882 5883 5884 5885 5885
5819 5819 5819 5820 5821 5821 5821 5822 5822 5823 5824 5824 5824 5825 5826 5826 5826 5827 5828 5830 5832 5834 5836 5838 5841 5843 5844 5846 5848 5850 5851 5852 5853 5854 5855 5857 5858 5860 5861 5861 5862 5863 5864 5865 5866 5868 5869 5870 5871 5872 5873 5873 5874 5876 5877 5878 5880 5881 5882 5883 5884 5885
5816 5816 5816 5817 5818 5818 5819 5819 5820 5820 5821 5821 5822 5823 5824 5824 5825 5826 5826 5828 5830 5832 5834 5835 5837 5840 5842 5843 5845 5847 5849 5850 5851 5852 5853 5854 5856 5858 5860 5860 5861 5862 5863 5864 5865 5866 5867 5868 5869 5870 5871 5872 5873 5874 5875 5877 5878 5879 5881 5882 5882 5883
5813 5813 5813 5814 5815 5816 5816 5817 5817 5818 5818 5819 5819 5820 5821 5822 5823 5824 5825 5826 5827 5829 5831 5832 5834 5836 5838 5840 5842 5844 5846 5847 5849 5850 5851 5852 5854 5856 5858 5859 5860 5860 5861 5862 5863 5865 5866 5867 5868 5868 5869 5870 5871 5873 5874 5875 5876 5877 5879 5880 5881 5882
5810 5810 5811 5811 5812 5813 5814 5814 5815 5815 5816 5816 5817 5818 5818 5820 5821 5822 5823 5824 5825 5827 5828 5829 5831 5833 5834 5836 5839 5841 5843 5844 5846 5848 5849 5850 5852 5854 5856 5858 5859 5860 5860 5860 5861 5863 5864 5865 5866 5867 5868 5869 5870 5871 5872 5873 5874 5876 5877 5878 5879 5880
5806 5807 5807 5808 5809 5810 5811 5811 5811 5812 5813 5814 5815 5816 5817 5818 5819 5820 5821 5822 5823 5825 5826 5827 5828 5830 5832 5833 5836 5838 5839 5841 5843 5845 5846 5848 5849 5851 5853 5855 5857 5858 5859 5859 5859 5860 5862 5863 5864 5865 5866 5867 5868 5869 5870 5871 5872 5874 5875 5877 5878 5879
5803 5803 5804 5804 5805 5806 5808 5808 5808 5809 5810 5811 5812 5813 5814 5815 5816 5817 5818 5819 5821 5823 5824 5825 5826 5827 5829 5831 5833 5834 5836 5838 5840 5841 5844 5845 5847 5849 5850 5852 5854 5856 5857 5858 5858 5858 5859 5860 5862 5863 5864 5865 5866 5867 5868 5869 5870 5871 5873 5874 5876 5877
5799 5799 5800 5801 5801 5803 5804 5805 5805 5806 5806 5807 5808 5810 5811 5812 5813 5814 5816 5817 5818 5820 5821 5822 5823 5825 5827 5829 5830 5831 5833 5835 5836 5838 5840 5842 5844 5846 5848 5849 5851 5853 5854 5856 5856 5857 5857 5858 5859 5860 5862 5863 5864 5865 5866 5867 5868 5869 5870 5872 5873 5875
5794 5795 5796 5797 5798 5799 5800 5801 5802 5802 5803 5804 5805 5806 5808 5809 5810 5811 5812 5814 5815 5817 5818 5820 5821 5823 5825 5826 5827 5828 5829 5831 5833 5835 5837 5839 5841 5843 5845 5846 5848 5849 5851 5853 5854 5855 5855 5856 5857 5858 5859 5861 5862 5863 5863 5864 5866 5867 5868 5870 5871 5872
5790 5791 5792 5793 5794 5795 5796 5797 5798 5799 5799 5800 5801 5803 5804 5805 5806 5807 5809 5810 5811 5813 5815 5817 5819 5820 5822 5823 5824 5824 5825 5827 5829 5831 5833 5835 5837 5839 5841 5843 5844 5846 5848 5850 5851 5852 5853 5854 5855 5856 5857 5858 5859 5860 5861 5862 5863 5864 5866 5867 5869 5870
5787 5788 5788 5789 5790 5791 5792 5793 5794 5795 5796 5797 5797 5799 5800 5801 5803 5804 5805 5806 5807 5809 5811 5813 5815 5816 5818 5819 5820 5821 5822 5823 5825 5827 5829 5831 5833 5835 5838 5840 5841 5843 5845 5847 5848 5849 5850 5851 5852 5853 5854 5855 5856 5857 5858 5860 5861 5862 5863 5865 5866 5868
5784 5784 5785 5786 5787 5787 5788 5789 5790 5791 5792 5793 5794 5795 5796 5797 5799 5800 5802 5803 5804 5805 5807 5809 5811 5812 5814 5815 5817 5818 5819 5820 5821 5823 5825 5827 5829 5831 5834 5836 5838 5839 5841 5843 5845 5846 5847 5848 5849 5850 5851 5852 5853 5854 5856 5857 5858 5859 5861 5862 5864 5866
5781 5781 5782 5783 5783 5784 5785 5785 5786 5787 5788 5789 5790 5791 5792 5793 5795 5796 5798 5799 5800 5801 5803 5804 5806 5808 5810 5812 5813 5815 5816 5817 5818 5819 5821 5823 5825 5828 5830 5832 5834 5835 5837 5839 5840 5842 5844 5845 5846 5847 5848 5849 5851 5852 5853 5854 5856 5857 5858 5860 5861 5863
5777 5778 5779 5779 5780 5781 5782 5782 5782 5783 5784 5785 5786 5786 5787 5788 5790 5792 5793 5795 5796 5797 5798 5800 5801 5803 5805 5807 5809 5811 5812 5813 5814 5816 5817 5819 5822 5824 5825 5827 5829 5830 5832 5834 5836 5839 5840 5841 5842 5843 5845 5846 5848 5849 5850 5851 5853 5854 5856 5857 5859 5860
5774 5775 5776 5777 5777 5778 5778 5779 5779 5779 5780 5781 5782 5782 5783 5784 5785 5787 5789 5791 5792 5793 5794 5795 5797 5798 5800 5802 5804 5806 5808 5809 5810 5811 5814 5816 5817 5819 5820 5823 5825 5826 5827 5830 5832 5834 5836 5837 5838 5840 5841 5843 5844 5845 5847 5848 5850 5851 5853 5855 5856 5857
5770 5770 5772 5773 5774 5775 5775 5775 5775 5776 5776 5777 5778 5778 5779 5780 5780 5782 5784 5786 5787 5788 5789 5791 5792 5794 5795 5797 5799 5801 5803 5805 5805 5807 5810 5812 5813 5814 5815 5818 5820 5821 5823 5826 5828 5829 5831 5834 5835 5836 5836 5837 5839 5841 5843 5845 5846 5847 5850 5852 5853 5854
5766 5766 5767 5768 5770 5771 5771 5771 5772 5772 5772 5773 5774 5774 5775 5776 5776 5777 5779 5781 5783 5784 5785 5786 5788 5789 5790 5792 5793 5795 5798 5799 5800 5802 5805 5807 5808 5810 5811 5813 5815 5816 5818 5821 5822 5823 5827 5830 5831 5831 5832 5834 5836 5837 5839 5841 5842 5844 5846 5847 5849 5850
5762 5763 5763 5764 5765 5766 5767 5767 5768 5768 5768 5769 5770 5771 5771 5772 5773 5773 5774 5776 5778 5779 5780 5782 5783 5785 5786 5787 5788 5790 5792 5794 5795 5797 5799 5802 5803 5805 5806 5808 5809 5811 5813 5816 5818 5819 5822 5825 5825 5827 5829 5831 5831 5832 5835 5837 5838 5839 5841 5842 5844 5846
5758 5759 5760 5760 5760 5761 5761 5762 5763 5764 5764 5764 5765 5767 5767 5768 5769 5769 5770 5771 5773 5774 5776 5777 5779 5780 5782 5783 5784 5785 5786 5788 5790 5792 5793 5796 5798 5799 5800 5803 5804 5805 5808 5811 5813 5815 5817 5819 5820 5822 5825 5826 5827 5829 5832 5832 5833 5834 5835 5837 5840 5841
5755 5755 5756 5757 5757 5757 5757 5757 5758 5758 5759 5759 5760 5761 5763 5764 5765 5765 5766 5766 5767 5769 5771 5772 5773 5775 5776 5778 5779 5780 5782 5783 5784 5786 5788 5790 5792 5793 5795 5797 5799 5800 5803 5805 5808 5809 5811 5813 5815 5816 5820 5822 5823 5826 5827 5826 5828 5830 5831 5833 5835 5837
5751 5752 5752 5753 5754 5753 5753 5753 5753 5754 5754 5754 5755 5756 5757 5758 5760 5761 5761 5762 5762 5763 5764 5766 5768 5770 5771 5772 5774 5775 5776 5778 5779 5781 5783 5785 5787 5788 5790 5792 5794 5796 5798 5800 5802 5804 5806 5809 5809 5810 5815 5818 5819 5822 5822 5821 5824 5825 5826 5829 5831 5832
5747 5748 5748 5749 5750 5749 5749 5749 5749 5749 5750 5750 5750 5750 5751 5752 5753 5755 5756 5757 5757 5758 5758 5760 5762 5764 5765 5766 5768 5769 5771 5772 5774 5776 5778 5779 5781 5783 5785 5786 5788 5790 5792 5794 5797 5799 5801 5803 5804 5806 5809 5812 5814 5816 5817 5817 5819 5820 5821 5824 5825 5827
5742 5743 5744 5745 5745 5745 5745 5745 5744 5745 5745 5745 5746 5746 5746 5746 5747 5748 5750 5751 5752 5752 5753 5754 5755 5757 5759 5761 5762 5763 5764 5766 5768 5770 5772 5774 5776 5778 5779 5781 5783 5785 5787 5789 5790 5793 5795 5796 5798 5800 5802 5804 5808 5810 5811 5813 5815 5816 5818 5820 5821 5823
5737 5738 5739 5740 5740 5741 5741 5740 5740 5740 5740 5740 5741 5741 5741 5742 5742 5742 5743 5744 5745 5747 5748 5749 5749 5751 5753 5754 5756 5757 5758 5759 5761 5763 5765 5767 5770 5772 5774 5775 5777 5779 5781 5782 5784 5786 5788 5790 5791 5794 5796 5798 5802 5804 5806 5809 5811 5814 5815 5816 5817 5819
5732 5733 5734 5734 5735 5736 5736 5736 5735 5735 5735 5735 5735 5735 5735 5736 5737 5737 5737 5738 5739 5740 5742 5743 5744 5745 5746 5748 5750 5751 5752 5753 5754 5756 5758 5760 5763 5766 5768 5769 5771 5773 5774 5776 5779 5780 5782 5784 5785 5788 5791 5793 5796 5799 5801 5804 5807 5809 5810 5811 5812 5814
5727 5728 5729 5729 5729 5730 5731 5730 5730 5730 5730 5730 5730 5730 5729 5730 5731 5732 5732 5732 5732 5733 5735 5736 5738 5739 5740 5741 5743 5745 5746 5747 5748 5750 5751 5753 5756 5758 5761 5763 5764 5766 5768 5770 5773 5775 5777 5779 5779 5782 5786 5788 5791 5793 5795 5798 5801 5802 5804 5806 5807 5808
5722 5723 5724 5724 5725 5725 5726 5726 5725 5725 5724 5724 5724 5724 5724 5724 5724 5725 5726 5726 5727 5727 5728 5729 5731 5732 5734 5735 5736 5738 5740 5741 5742 5743 5745 5746 5748 5751 5754 5756 5757 5760 5762 5764 5766 5769 5771 5773 5773 5776 5780 5783 5784 5786 5789 5792 5794 5796 5798 5801 5802 5803
5717 5718 5719 5720 5720 5720 5721 5721 5721 5720 5720 5719 5719 5719 5719 5718 5718 5718 5719 5720 5720 5721 5722 5723 5724 5725 5727 5728 5730 5731 5733 5735 5736 5737 5739 5740 5741 5743 5745 5748 5750 5752 5755 5757 5759 5762 5765 5766 5768 5770 5773 5776 5778 5781 5783 5786 5788 5790 5793 5795 5796 5799
5712 5713 5714 5714 5715 5715 5715 5715 5716 5715 5715 5715 5714 5713 5713 5713 5713 5712 5713 5713 5714 5715 5715 5716 5717 5718 5720 5721 5723 5724 5726 5728 5730 5731 5732 5734 5735 5736 5737 5740 5743 5745 5748 5750 5752 5755 5758 5760 5763 5765 5767 5770 5773 5776 5778 5780 5782 5784 5787 5789 5790 5794
5707 5708 5708 5709 5709 5709 5709 5709 5710 5710 5710 5710 5709 5708 5708 5708 5707 5707 5707 5707 5707 5708 5709 5710 5710 5711 5712 5714 5716 5717 5719 5721 5723 5724 5726 5727 5729 5730 5731 5732 5735 5738 5741 5743 5745 5748 5751 5754 5757 5760 5762 5764 5767 5770 5773 5775 5776 5778 5781 5783 5785 5787
5702 5703 5703 5703 5703 5703 5703 5703 5703 5704 5704 5704 5704 5703 5703 5702 5702 5702 5701 5701 5701 5701 5702 5703 5704 5704 5705 5707 5708 5710 5712 5713 5715 5717 5719 5721 5722 5724 5725 5726 5727 5730 5734 5736 5738 5740 5743 5747 5751 5754 5756 5758 5760 5763 5766 5768 5770 5772 5775 5778 5779 5780